Location: McFarlands Corners
(41.4117°N, 81.3382°W)
Time: 02:33:29
(UTC+00:00)

Tiros 1 - Pass Details

Date: 22 February 2026
Orbit: 618 x 649 km, 48.4° (Epoch: 7 March)

Event Time Altitude Azimuth Distance (km) Brightness Sun altitude
Rises 11:13:05 0° 208° (SSW) 2,922 10.3 -11.5°
Reaches altitude 10° 11:15:39 10° 197° (SSW) 2,012 9.6 -11.0°
Maximum altitude 11:19:37 28° 138° (SE) 1,173 9.0 -10.2°
Drops below altitude 10° 11:23:33 10° 79° (E) 2,003 11.1 -9.5°
Sets 11:26:06 0° 68° (ENE) 2,908 11.7 -9.0°
